Regional Weather Roundup
Issued by NWS

Home | Current Version | Previous Version | Graphics & Text | Print | Product List | Glossary On
Versions: 1 2 3 4 5 6 7 8 9 10 11 12 13 14 15 16 17 18 19 20 21 22 23 24 25 26 27 28 29 30 31 32 33 34 35 36 37 38 39 40 41 42 43 44 45 46 47 48 49 50
000
ASUS43 KTOP 200059
RWRKS

WEATHER ROUNDUP FOR KANSAS
NATIONAL WEATHER SERVICE GOODLAND KS
800 PM CDT THU APR 19 2018

NOTE:  "FAIR" INDICATES FEW OR NO CLOUDS BELOW 12,000 FEET WITH NO
SIGNIFICANT WEATHER AND/OR OBSTRUCTIONS TO VISIBILITY.

KSZ001>006-013>018-027>032-041>047-200200-
NORTHWEST KANSAS

CITY           SKY/WX    TMP DP  RH WIND       PRES   REMARKS
GOODLAND       MOCLDY    57  26  30 SE17G31   30.16F
HAYS           PTCLDY    55  27  34 SE13      30.29S
HILL CITY      CLEAR     56  25  30 SE10      30.29R
RUSSELL        PTCLDY    55  29  36 SE12      30.28F
$$

KSZ061>065-074>080-084>089-200200-
SOUTHWEST KANSAS

CITY           SKY/WX    TMP DP  RH WIND       PRES   REMARKS
DODGE CITY     CLEAR     57  25  29 SE13      30.24F
GARDEN CITY    CLEAR     58  24  27 SE14      30.21F
GREAT BEND     CLEAR     55  28  35 SE9       30.29F
LIBERAL        CLEAR     61  26  26 SE17      30.21S
$$

KSZ066>073-081>083-090>101-200200-
SOUTHEAST KANSAS

CITY           SKY/WX    TMP DP  RH WIND       PRES   REMARKS
CHANUTE        CLOUDY    54  31  41 E7        30.34F
COFFEYVILLE    CLOUDY    53  32  44 E6        30.34S
HUTCHINSON     CLEAR     55  27  34 E9        30.31S
MEDICINE LODGE   N/A     57  29  34 E6        30.28F
NEWTON         CLEAR     52  26  36 E6        30.33S
PARSONS        CLOUDY    53  32  44 CALM      30.35S HAZE
WICHITA INTL   PTCLDY    54  28  36 E9        30.32R
WICHITA JABRA  CLEAR     52  27  38 E6        30.32S
WINFIELD       CLEAR     56  27  32 E6        30.32S
$$

KSZ007>012-019>026-033>040-048>060-102>105-200200-
NORTHEAST KANSAS

CITY           SKY/WX    TMP DP  RH WIND       PRES   REMARKS
CONCORDIA      CLOUDY    52  24  33 SE6       30.32F
EMPORIA        CLEAR     51  30  44 E8        30.33F
LAWRENCE       CLEAR     53  29  39 E6        30.35S
MANHATTAN      CLEAR     55  28  35 E7        30.33F
OLATHE IND     CLEAR     54  29  38 E7        30.36R
OLATHE EXE     CLEAR     52  29  41 E9        30.35S
SALINA         CLEAR     57  28  33 E7        30.32F
TOPEKA BILLARD CLEAR     54  30  40 E7        30.35S
TOPEKA FORBES  CLEAR     55  30  38 E3        30.34S
$$



USA.gov is the U.S. government's official web portal to all federal, state and local government web resources and services.